Location: Hengforden
(52.3167°N, 6.1333°E)
Time: 16:38:32
(UTC+00:00)

Okean 1-7 - Pass Details

Date: 14 June 2025
Orbit: 570 x 591 km, 82.5° (Epoch: 19 July)

Event Time Altitude Azimuth Distance (km) Brightness Sun altitude
Exits shadow 22:19:31 19° 148° (SSE) 1,395 4.3 -12.6°
Maximum altitude 22:21:57 36° 92° (E) 912 3.8 -12.7°
Drops below altitude 10° 22:25:47 10° 25° (NNE) 1,886 6.3 -12.8°
Sets 22:28:05 0° 17° (NNE) 2,789 7.4 -12.9°
